Time,TemperatureF,DewpointF,PressureIn,WindDirection,WindDirectionDegrees,WindSpeedMPH,WindSpeedGustMPH,Humidity,HourlyPrecipIn,Conditions,Clouds,dailyrainin,SolarRadiationWatts/m^2,SoftwareType,DateUTC
2013-09-02 00:00:00,67.9,65.5,29.85,SW,234,0.0,1.0,92,0.00,RA,SCT,0.00,0.0,WeatherDisplay:10.37,2013-09-02 04:00:00,
2013-09-02 00:05:00,67.9,65.5,29.85,SW,234,0.0,0.0,92,0.00,RA,SCT,0.00,0.0,WeatherDisplay:10.37,2013-09-02 04:05:00,
2013-09-02 00:10:00,67.9,65.5,29.85,SW,234,0.0,0.0,92,0.00,,SCT,0.00,0.0,WeatherDisplay:10.37,2013-09-02 04:10:00,
2013-09-02 00:15:00,67.9,65.5,29.85,SW,234,0.0,0.0,92,0.00,,SCT,0.00,0.0,WeatherDisplay:10.37,2013-09-02 04:15:00,
2013-09-02 00:20:00,67.8,65.4,29.85,SW,234,0.0,0.0,92,0.00,,SCT,0.00,0.0,WeatherDisplay:10.37,2013-09-02 04:20:00,
2013-09-02 00:25:00,67.8,65.4,29.84,SW,234,0.0,0.0,92,0.00,,SCT,0.00,0.0,WeatherDisplay:10.37,2013-09-02 04:25:00,
2013-09-02 00:35:00,67.8,65.7,29.84,SW,234,0.0,0.0,93,0.00,,SCT,0.00,0.0,WeatherDisplay:10.37,2013-09-02 04:35:00,
2013-09-02 00:40:00,67.7,65.6,29.84,SW,234,0.0,0.0,93,0.00,,SCT,0.00,0.0,WeatherDisplay:10.37,2013-09-02 04:40:00,
2013-09-02 00:45:00,67.7,65.6,29.84,SW,234,0.0,1.0,93,0.00,,SCT,0.00,0.0,WeatherDisplay:10.37,2013-09-02 04:45:00,
2013-09-02 00:50:00,67.8,65.7,29.84,SW,234,0.0,2.0,93,0.00,,SCT,0.00,0.0,WeatherDisplay:10.37,2013-09-02 04:50:00,
2013-09-02 00:55:00,67.8,65.7,29.84,SW,234,0.0,0.0,93,0.00,,SCT,0.00,0.0,WeatherDisplay:10.37,2013-09-02 04:55:00,
2013-09-02 01:00:00,67.8,65.7,29.84,SW,234,0.0,0.0,93,0.00,,SCT,0.00,0.0,WeatherDisplay:10.37,2013-09-02 05:00:00,
2013-09-02 01:10:00,67.7,65.6,29.84,SW,234,0.0,0.0,93,0.00,,SCT,0.00,0.0,WeatherDisplay:10.37,2013-09-02 05:10:00,
2013-09-02 01:15:00,67.7,65.6,29.84,SW,234,0.0,0.0,93,0.00,,SCT,0.00,0.0,WeatherDisplay:10.37,2013-09-02 05:15:00,
2013-09-02 01:20:00,67.7,65.6,29.84,SW,234,0.0,0.0,93,0.00,,SCT,0.00,0.0,WeatherDisplay:10.37,2013-09-02 05:20:00,
2013-09-02 01:30:00,67.5,65.1,29.84,SW,234,0.0,0.0,92,0.00,,SCT,0.00,0.0,WeatherDisplay:10.37,2013-09-02 05:30:00,
2013-09-02 01:35:00,67.5,65.1,29.83,SW,234,0.0,0.0,92,0.00,,SCT,0.00,0.0,WeatherDisplay:10.37,2013-09-02 05:35:00,
2013-09-02 01:40:00,67.4,65.0,29.83,SW,234,0.0,0.0,92,0.00,,SCT,0.00,0.0,WeatherDisplay:10.37,2013-09-02 05:40:00,
2013-09-02 01:45:00,67.4,65.0,29.83,SW,234,0.0,0.0,92,0.00,,SCT,0.00,0.0,WeatherDisplay:10.37,2013-09-02 05:45:00,
2013-09-02 01:50:00,67.3,64.9,29.83,SW,234,0.0,0.0,92,0.00,,SCT,0.00,0.0,WeatherDisplay:10.37,2013-09-02 05:50:00,
2013-09-02 01:55:00,67.3,65.2,29.83,SW,234,0.0,0.0,93,0.00,,SCT,0.00,0.0,WeatherDisplay:10.37,2013-09-02 05:55:00,
2013-09-02 02:00:00,67.3,65.2,29.83,SW,234,0.0,0.0,93,0.00,,SCT,0.00,0.0,WeatherDisplay:10.37,2013-09-02 06:00:00,
2013-09-02 02:05:00,67.2,65.1,29.83,SW,234,0.0,0.0,93,0.00,,SCT,0.00,0.0,WeatherDisplay:10.37,2013-09-02 06:05:00,
2013-09-02 02:10:00,67.2,65.1,29.83,SW,234,0.0,2.0,93,0.00,,SCT,0.00,0.0,WeatherDisplay:10.37,2013-09-02 06:10:00,
2013-09-02 02:15:00,67.1,65.0,29.83,SW,234,0.0,1.0,93,0.00,,SCT,0.00,0.0,WeatherDisplay:10.37,2013-09-02 06:15:00,
2013-09-02 02:20:00,67.1,65.0,29.83,SW,234,0.0,1.0,93,0.00,,SCT,0.00,0.0,WeatherDisplay:10.37,2013-09-02 06:20:00,
2013-09-02 02:25:00,67.0,64.9,29.83,SW,234,0.0,0.0,93,0.00,,SCT,0.00,0.0,WeatherDisplay:10.37,2013-09-02 06:25:00,
2013-09-02 02:30:00,67.0,64.9,29.83,SW,234,0.0,0.0,93,0.00,,SCT,0.00,0.0,WeatherDisplay:10.37,2013-09-02 06:30:00,
2013-09-02 02:35:00,67.0,64.9,29.83,SW,234,0.0,1.0,93,0.00,,SCT,0.00,0.0,WeatherDisplay:10.37,2013-09-02 06:35:00,
2013-09-02 02:40:00,67.1,65.0,29.83,SW,234,1.0,3.0,93,0.00,,SCT,0.00,0.0,WeatherDisplay:10.37,2013-09-02 06:40:00,
2013-09-02 02:45:00,67.2,65.1,29.83,SW,234,0.0,3.0,93,0.00,,SCT,0.00,0.0,WeatherDisplay:10.37,2013-09-02 06:45:00,
2013-09-02 02:50:00,67.2,65.1,29.83,SW,234,1.0,2.0,93,0.00,,SCT,0.00,0.0,WeatherDisplay:10.37,2013-09-02 06:50:00,
2013-09-02 02:55:00,67.3,65.2,29.83,SW,234,0.0,2.0,93,0.00,,SCT,0.00,0.0,WeatherDisplay:10.37,2013-09-02 06:55:00,
2013-09-02 03:00:00,67.4,65.3,29.83,SW,234,0.0,2.0,93,0.00,,SCT,0.00,0.0,WeatherDisplay:10.37,2013-09-02 07:00:00,
2013-09-02 03:10:00,67.4,65.3,29.83,SW,234,0.0,2.0,93,0.00,,SCT,0.00,0.0,WeatherDisplay:10.37,2013-09-02 07:10:00,
2013-09-02 03:20:00,67.4,65.3,29.83,SW,234,0.0,1.0,93,0.00,,SCT,0.00,0.0,WeatherDisplay:10.37,2013-09-02 07:20:00,
2013-09-02 03:30:00,67.3,65.2,29.83,SW,234,0.0,1.0,93,0.00,,SCT,0.00,0.0,WeatherDisplay:10.37,2013-09-02 07:30:00,
2013-09-02 03:35:00,67.3,65.2,29.83,SW,234,0.0,0.0,93,0.00,,SCT,0.00,0.0,WeatherDisplay:10.37,2013-09-02 07:35:00,
2013-09-02 03:40:00,67.3,65.2,29.83,SW,234,0.0,0.0,93,0.00,,SCT,0.00,0.0,WeatherDisplay:10.37,2013-09-02 07:40:00,
2013-09-02 03:45:00,67.3,65.2,29.83,SW,234,0.0,1.0,93,0.00,,SCT,0.00,0.0,WeatherDisplay:10.37,2013-09-02 07:45:00,
2013-09-02 03:50:00,67.3,65.2,29.83,SW,234,0.0,0.0,93,0.00,,SCT,0.00,0.0,WeatherDisplay:10.37,2013-09-02 07:50:00,
2013-09-02 03:55:00,67.3,65.2,29.83,SW,234,0.0,2.0,93,0.00,,SCT,0.00,0.0,WeatherDisplay:10.37,2013-09-02 07:55:00,
2013-09-02 04:00:00,67.3,65.2,29.83,SW,234,0.0,0.0,93,0.00,,SCT,0.00,0.0,WeatherDisplay:10.37,2013-09-02 08:00:00,
2013-09-02 04:05:00,67.3,65.2,29.83,SW,234,0.0,1.0,93,0.00,,SCT,0.00,0.0,WeatherDisplay:10.37,2013-09-02 08:05:00,
2013-09-02 04:10:00,67.3,65.2,29.82,SW,234,0.0,0.0,93,0.00,,SCT,0.00,0.0,WeatherDisplay:10.37,2013-09-02 08:10:00,
2013-09-02 04:15:00,67.3,65.2,29.82,SW,234,0.0,1.0,93,0.00,,SCT,0.00,0.0,WeatherDisplay:10.37,2013-09-02 08:15:00,
2013-09-02 04:20:00,67.2,65.1,29.82,SW,234,0.0,1.0,93,0.00,,SCT,0.00,0.0,WeatherDisplay:10.37,2013-09-02 08:20:00,
2013-09-02 04:25:00,67.2,65.1,29.82,SW,234,0.0,1.0,93,0.00,,SCT,0.00,0.0,WeatherDisplay:10.37,2013-09-02 08:25:00,
2013-09-02 04:30:00,67.2,65.1,29.82,SW,234,0.0,0.0,93,0.00,,SCT,0.00,0.0,WeatherDisplay:10.37,2013-09-02 08:30:00,
2013-09-02 04:35:00,67.2,65.1,29.83,SW,234,0.0,0.0,93,0.00,,SCT,0.00,0.0,WeatherDisplay:10.37,2013-09-02 08:35:00,
2013-09-02 04:40:00,67.2,65.1,29.83,SW,234,0.0,0.0,93,0.00,,SCT,0.00,0.0,WeatherDisplay:10.37,2013-09-02 08:40:00,
2013-09-02 04:45:00,67.2,65.1,29.83,SW,234,0.0,2.0,93,0.00,,SCT,0.00,0.0,WeatherDisplay:10.37,2013-09-02 08:45:00,
2013-09-02 04:50:00,67.2,65.1,29.82,SW,234,0.0,1.0,93,0.00,,SCT,0.00,0.0,WeatherDisplay:10.37,2013-09-02 08:50:00,
2013-09-02 04:55:00,67.3,65.2,29.83,SW,234,0.0,2.0,93,0.00,,SCT,0.00,0.0,WeatherDisplay:10.37,2013-09-02 08:55:00,
2013-09-02 05:00:00,67.4,65.3,29.83,SW,234,2.0,5.0,93,0.00,,SCT,0.00,0.0,WeatherDisplay:10.37,2013-09-02 09:00:00,
2013-09-02 05:05:00,67.5,65.4,29.83,SW,234,0.0,3.0,93,0.00,,SCT,0.00,0.0,WeatherDisplay:10.37,2013-09-02 09:05:00,
2013-09-02 05:10:00,67.6,65.5,29.82,SW,234,1.0,4.0,93,0.00,,SCT,0.00,0.0,WeatherDisplay:10.37,2013-09-02 09:10:00,
2013-09-02 05:15:00,67.6,65.5,29.83,SW,234,0.0,2.0,93,0.00,,SCT,0.00,0.0,WeatherDisplay:10.37,2013-09-02 09:15:00,
2013-09-02 05:20:00,67.6,65.5,29.82,SW,234,1.0,2.0,93,0.00,,SCT,0.00,0.0,WeatherDisplay:10.37,2013-09-02 09:20:00,
2013-09-02 05:25:00,67.6,65.5,29.82,SW,234,1.0,2.0,93,0.00,,SCT,0.00,0.0,WeatherDisplay:10.37,2013-09-02 09:25:00,
2013-09-02 05:30:00,67.5,65.4,29.82,SW,234,0.0,1.0,93,0.00,,SCT,0.00,0.0,WeatherDisplay:10.37,2013-09-02 09:30:00,
2013-09-02 05:35:00,67.5,65.4,29.82,SW,234,0.0,1.0,93,0.00,,SCT,0.00,0.0,WeatherDisplay:10.37,2013-09-02 09:35:00,
2013-09-02 05:40:00,67.5,65.4,29.82,SW,234,0.0,2.0,93,0.00,,SCT,0.00,0.0,WeatherDisplay:10.37,2013-09-02 09:40:00,
2013-09-02 05:45:00,67.5,65.4,29.82,SW,234,0.0,1.0,93,0.00,,SCT,0.00,0.0,WeatherDisplay:10.37,2013-09-02 09:45:00,
2013-09-02 05:50:00,67.4,65.3,29.82,SW,234,0.0,0.0,93,0.00,,SCT,0.00,0.0,WeatherDisplay:10.37,2013-09-02 09:50:00,
2013-09-02 05:55:00,67.4,65.3,29.82,SW,234,0.0,1.0,93,0.00,,SCT,0.00,0.0,WeatherDisplay:10.37,2013-09-02 09:55:00,
2013-09-02 06:00:00,67.4,65.3,29.82,SW,234,0.0,0.0,93,0.00,,SCT,0.00,0.0,WeatherDisplay:10.37,2013-09-02 10:00:00,
2013-09-02 06:05:00,67.4,65.3,29.82,SW,234,0.0,0.0,93,0.00,,SCT,0.00,0.0,WeatherDisplay:10.37,2013-09-02 10:05:00,
2013-09-02 06:10:00,67.4,65.3,29.82,SW,234,0.0,0.0,93,0.00,,SCT,0.00,0.0,WeatherDisplay:10.37,2013-09-02 10:10:00,
2013-09-02 06:20:00,67.3,65.2,29.82,SW,234,1.0,2.0,93,0.00,,SCT,0.00,0.0,WeatherDisplay:10.37,2013-09-02 10:20:00,
2013-09-02 06:25:00,67.3,65.2,29.82,SW,234,1.0,2.0,93,0.00,,SCT,0.00,0.0,WeatherDisplay:10.37,2013-09-02 10:25:00,
2013-09-02 06:30:00,67.3,65.2,29.82,SW,234,0.0,2.0,93,0.00,,SCT,0.00,0.0,WeatherDisplay:10.37,2013-09-02 10:30:00,
2013-09-02 06:35:00,67.2,65.1,29.82,SW,234,0.0,0.0,93,0.00,,SCT,0.00,0.0,WeatherDisplay:10.37,2013-09-02 10:35:00,
2013-09-02 06:40:00,67.2,65.1,29.82,SW,234,0.0,0.0,93,0.00,,SCT,0.00,0.0,WeatherDisplay:10.37,2013-09-02 10:40:00,
2013-09-02 06:45:00,67.2,65.1,29.83,SW,234,1.0,2.0,93,0.00,,SCT,0.00,0.0,WeatherDisplay:10.37,2013-09-02 10:45:00,
2013-09-02 06:50:00,67.2,65.1,29.83,SW,234,0.0,2.0,93,0.00,,SCT,0.00,0.0,WeatherDisplay:10.37,2013-09-02 10:50:00,
2013-09-02 06:55:00,67.2,65.1,29.83,SW,234,0.0,1.0,93,0.00,,SCT,0.00,0.0,WeatherDisplay:10.37,2013-09-02 10:55:00,
2013-09-02 07:00:00,67.1,65.1,29.84,SW,234,0.0,2.0,93,0.00,,SCT,0.00,0.0,WeatherDisplay:10.37,2013-09-02 11:00:00,
2013-09-02 07:05:00,67.1,65.0,29.84,SW,234,0.0,0.0,93,0.00,,SCT,0.00,0.0,WeatherDisplay:10.37,2013-09-02 11:05:00,
2013-09-02 07:10:00,67.1,65.0,29.84,SW,234,0.0,1.0,93,0.00,,SCT,0.00,7.0,WeatherDisplay:10.37,2013-09-02 11:10:00,
2013-09-02 07:15:00,67.1,65.0,29.84,SW,234,0.0,1.0,93,0.00,,SCT,0.00,7.0,WeatherDisplay:10.37,2013-09-02 11:15:00,
2013-09-02 07:20:00,67.1,65.0,29.84,SW,234,0.0,0.0,93,0.00,,SCT,0.00,11.0,WeatherDisplay:10.37,2013-09-02 11:20:00,
2013-09-02 07:25:00,67.1,65.0,29.84,SW,234,0.0,0.0,93,0.00,,SCT,0.00,12.0,WeatherDisplay:10.37,2013-09-02 11:25:00,
2013-09-02 07:30:00,67.1,65.0,29.84,SW,234,0.0,0.0,93,0.00,BKN,SCT,0.00,19.0,WeatherDisplay:10.37,2013-09-02 11:30:00,
2013-09-02 07:35:00,67.1,65.0,29.84,SW,227,0.0,1.0,93,0.00,BKN,SCT,0.00,23.0,WeatherDisplay:10.37,2013-09-02 11:35:00,
2013-09-02 07:40:00,67.1,65.0,29.84,SSW,209,0.0,0.0,93,0.00,BKN,SCT,0.00,30.0,WeatherDisplay:10.37,2013-09-02 11:40:00,
2013-09-02 07:45:00,67.1,65.0,29.84,SSW,200,0.0,0.0,93,0.00,BKN,SCT,0.00,40.0,WeatherDisplay:10.37,2013-09-02 11:45:00,
2013-09-02 07:50:00,67.1,65.0,29.84,SSW,200,0.0,0.0,93,0.00,BKN,SCT,0.00,49.0,WeatherDisplay:10.37,2013-09-02 11:50:00,
2013-09-02 07:55:00,67.1,65.0,29.85,SSW,200,0.0,2.0,93,0.00,BKN,SCT,0.00,32.0,WeatherDisplay:10.37,2013-09-02 11:55:00,
2013-09-02 08:00:00,67.2,65.1,29.85,SSW,200,1.0,3.0,93,0.00,BKN,SCT,0.00,51.0,WeatherDisplay:10.37,2013-09-02 12:00:00,
2013-09-02 08:05:00,67.2,65.1,29.85,SSW,200,0.0,3.0,93,0.00,BKN,SCT,0.00,77.0,WeatherDisplay:10.37,2013-09-02 12:05:00,
2013-09-02 08:10:00,67.3,65.2,29.85,SSW,200,1.0,4.0,93,0.00,BKN,SCT,0.00,86.0,WeatherDisplay:10.37,2013-09-02 12:10:00,
2013-09-02 08:15:00,67.4,65.3,29.85,SSW,200,1.0,3.0,93,0.00,BKN,SCT,0.00,35.0,WeatherDisplay:10.37,2013-09-02 12:15:00,
2013-09-02 08:20:00,67.4,65.3,29.86,SSW,200,1.0,2.0,93,0.00,BKN,SCT,0.00,32.0,WeatherDisplay:10.37,2013-09-02 12:20:00,
2013-09-02 08:25:00,67.4,65.3,29.86,SSW,200,0.0,2.0,93,0.00,OVC,SCT,0.00,39.0,WeatherDisplay:10.37,2013-09-02 12:25:00,
2013-09-02 08:30:00,67.5,65.4,29.86,SSW,200,1.0,3.0,93,0.00,OVC,SCT,0.00,63.0,WeatherDisplay:10.37,2013-09-02 12:30:00,
2013-09-02 08:40:00,67.6,65.5,29.86,SSW,198,0.0,3.0,93,0.00,OVC,SCT,0.00,54.0,WeatherDisplay:10.37,2013-09-02 12:40:00,
2013-09-02 08:45:00,67.7,65.6,29.86,SSW,198,1.0,2.0,93,0.00,OVC,SCT,0.00,79.0,WeatherDisplay:10.37,2013-09-02 12:45:00,
2013-09-02 08:50:00,67.7,65.6,29.86,SSW,200,0.0,2.0,93,0.00,BKN,SCT,0.00,91.0,WeatherDisplay:10.37,2013-09-02 12:50:00,
2013-09-02 08:55:00,67.9,65.8,29.86,SSW,200,1.0,3.0,93,0.00,BKN,SCT,0.00,90.0,WeatherDisplay:10.37,2013-09-02 12:55:00,
2013-09-02 09:00:00,68.0,65.9,29.86,SSW,200,1.0,2.0,93,0.00,BKN,SCT,0.00,93.0,WeatherDisplay:10.37,2013-09-02 13:00:00,
2013-09-02 09:05:00,68.1,66.0,29.86,SSW,200,0.0,1.0,93,0.00,BKN,SCT,0.00,134.0,WeatherDisplay:10.37,2013-09-02 13:05:00,
2013-09-02 09:10:00,68.2,66.1,29.86,SSW,200,1.0,3.0,93,0.00,BKN,SCT,0.00,186.0,WeatherDisplay:10.37,2013-09-02 13:10:00,
2013-09-02 09:15:00,68.4,66.3,29.86,SSW,200,0.0,2.0,93,0.00,SCT,SCT,0.00,179.0,WeatherDisplay:10.37,2013-09-02 13:15:00,
2013-09-02 09:20:00,68.6,66.5,29.87,SSW,200,0.0,2.0,93,0.00,BKN,SCT,0.00,202.0,WeatherDisplay:10.37,2013-09-02 13:20:00,
2013-09-02 09:25:00,68.9,66.7,29.87,SSW,200,0.0,2.0,93,0.00,SCT,SCT,0.00,204.0,WeatherDisplay:10.37,2013-09-02 13:25:00,
2013-09-02 09:30:00,69.2,67.4,29.87,SSW,200,0.0,1.0,94,0.00,SCT,SCT,0.00,251.0,WeatherDisplay:10.37,2013-09-02 13:30:00,
2013-09-02 09:35:00,69.4,67.3,29.87,SSW,200,0.0,0.0,93,0.00,SCT,SCT,0.00,350.0,WeatherDisplay:10.37,2013-09-02 13:35:00,
2013-09-02 09:40:00,69.8,67.9,29.87,SSW,200,0.0,1.0,94,0.00,SCT,SCT,0.00,246.0,WeatherDisplay:10.37,2013-09-02 13:40:00,
2013-09-02 09:50:00,70.2,68.1,29.87,SSW,200,0.0,1.0,93,0.00,BKN,SCT,0.00,214.0,WeatherDisplay:10.37,2013-09-02 13:50:00,
2013-09-02 09:55:00,70.4,68.6,29.87,SSW,200,0.0,1.0,94,0.00,BKN,SCT,0.00,230.0,WeatherDisplay:10.37,2013-09-02 13:55:00,
2013-09-02 10:00:00,70.4,68.6,29.87,SSW,200,0.0,3.0,94,0.00,BKN,SCT,0.00,223.0,WeatherDisplay:10.37,2013-09-02 14:00:00,
2013-09-02 10:05:00,70.5,68.7,29.87,SSW,200,0.0,1.0,94,0.00,BKN,SCT,0.00,220.0,WeatherDisplay:10.37,2013-09-02 14:05:00,
2013-09-02 10:10:00,70.6,68.5,29.87,WSW,243,0.0,2.0,93,0.00,BKN,SCT,0.00,232.0,WeatherDisplay:10.37,2013-09-02 14:10:00,
2013-09-02 10:15:00,70.8,68.7,29.88,WNW,294,0.0,2.0,93,0.00,BKN,SCT,0.00,232.0,WeatherDisplay:10.37,2013-09-02 14:15:00,
2013-09-02 10:20:00,70.9,68.8,29.88,WNW,294,0.0,3.0,93,0.00,BKN,SCT,0.00,216.0,WeatherDisplay:10.37,2013-09-02 14:20:00,
2013-09-02 10:25:00,71.0,69.2,29.88,WNW,294,0.0,2.0,94,0.00,BKN,SCT,0.00,209.0,WeatherDisplay:10.37,2013-09-02 14:25:00,
2013-09-02 10:35:00,71.4,69.6,29.88,WNW,294,0.0,1.0,94,0.00,BKN,SCT,0.00,313.0,WeatherDisplay:10.37,2013-09-02 14:35:00,
2013-09-02 10:40:00,71.9,70.1,29.89,WNW,293,1.0,3.0,94,0.00,SCT,SCT,0.00,519.0,WeatherDisplay:10.37,2013-09-02 14:40:00,
2013-09-02 10:45:00,72.5,70.7,29.89,WNW,293,1.0,4.0,94,0.00,FEW,SCT,0.00,749.0,WeatherDisplay:10.37,2013-09-02 14:45:00,
2013-09-02 10:50:00,72.8,71.0,29.88,WNW,293,0.0,1.0,94,0.00,CLR,SCT,0.00,492.0,WeatherDisplay:10.37,2013-09-02 14:50:00,
2013-09-02 10:55:00,73.3,71.5,29.88,WNW,293,0.0,3.0,94,0.00,CLR,SCT,0.00,791.0,WeatherDisplay:10.37,2013-09-02 14:55:00,
2013-09-02 11:00:00,73.9,72.1,29.88,WNW,293,1.0,3.0,94,0.00,CLR,SCT,0.00,554.0,WeatherDisplay:10.37,2013-09-02 15:00:00,
2013-09-02 11:05:00,74.1,72.3,29.88,WNW,290,0.0,4.0,94,0.00,FEW,SCT,0.00,445.0,WeatherDisplay:10.37,2013-09-02 15:05:00,
2013-09-02 11:10:00,74.5,72.6,29.88,West,267,0.0,1.0,94,0.00,SCT,SCT,0.00,392.0,WeatherDisplay:10.37,2013-09-02 15:10:00,
2013-09-02 11:15:00,74.8,72.6,29.88,WSW,257,1.0,2.0,93,0.00,SCT,SCT,0.00,417.0,WeatherDisplay:10.37,2013-09-02 15:15:00,
2013-09-02 11:20:00,74.8,72.7,29.88,WSW,256,1.0,3.0,93,0.00,SCT,SCT,0.00,410.0,WeatherDisplay:10.37,2013-09-02 15:20:00,
2013-09-02 11:25:00,75.1,72.9,29.88,WSW,256,0.0,2.0,93,0.00,SCT,SCT,0.00,443.0,WeatherDisplay:10.37,2013-09-02 15:25:00,
2013-09-02 11:30:00,75.4,73.2,29.88,WSW,256,0.0,4.0,93,0.00,SCT,SCT,0.00,434.0,WeatherDisplay:10.37,2013-09-02 15:30:00,
2013-09-02 11:35:00,75.7,73.6,29.89,WSW,256,0.0,2.0,93,0.00,SCT,SCT,0.00,387.0,WeatherDisplay:10.37,2013-09-02 15:35:00,
2013-09-02 11:40:00,76.0,73.5,29.89,WSW,256,0.0,3.0,92,0.00,SCT,SCT,0.00,364.0,WeatherDisplay:10.37,2013-09-02 15:40:00,
2013-09-02 11:45:00,76.4,73.6,29.88,WSW,256,0.0,1.0,91,0.00,BKN,SCT,0.00,357.0,WeatherDisplay:10.37,2013-09-02 15:45:00,
2013-09-02 11:50:00,76.6,73.5,29.88,WSW,256,0.0,0.0,90,0.00,BKN,SCT,0.00,374.0,WeatherDisplay:10.37,2013-09-02 15:50:00,
2013-09-02 11:55:00,76.9,73.4,29.88,WSW,256,0.0,1.0,89,0.00,BKN,SCT,0.00,369.0,WeatherDisplay:10.37,2013-09-02 15:55:00,
2013-09-02 12:00:00,77.2,73.1,29.88,WSW,256,0.0,3.0,87,0.00,BKN,SCT,0.00,364.0,WeatherDisplay:10.37,2013-09-02 16:00:00,
2013-09-02 12:05:00,77.5,72.7,29.88,WSW,256,1.0,3.0,85,0.00,BKN,SCT,0.00,373.0,WeatherDisplay:10.37,2013-09-02 16:05:00,
2013-09-02 12:10:00,77.8,72.9,29.88,WSW,256,0.0,2.0,85,0.00,BKN,SCT,0.00,396.0,WeatherDisplay:10.37,2013-09-02 16:10:00,
2013-09-02 12:15:00,78.1,72.9,29.88,WSW,256,0.0,3.0,84,0.00,BKN,SCT,0.00,492.0,WeatherDisplay:10.37,2013-09-02 16:15:00,
2013-09-02 12:20:00,78.5,72.9,29.88,WSW,256,1.0,3.0,83,0.00,SCT,SCT,0.00,591.0,WeatherDisplay:10.37,2013-09-02 16:20:00,
2013-09-02 12:25:00,78.8,72.5,29.88,WSW,256,0.0,4.0,81,0.00,SCT,SCT,0.00,592.0,WeatherDisplay:10.37,2013-09-02 16:25:00,
2013-09-02 12:30:00,79.1,72.8,29.88,WSW,256,3.0,5.0,81,0.00,SCT,SCT,0.00,710.0,WeatherDisplay:10.37,2013-09-02 16:30:00,
2013-09-02 12:35:00,79.5,73.1,29.88,WSW,256,0.0,2.0,81,0.00,FEW,SCT,0.00,905.0,WeatherDisplay:10.37,2013-09-02 16:35:00,
2013-09-02 12:40:00,79.9,73.2,29.87,WSW,256,0.0,2.0,80,0.00,FEW,SCT,0.00,907.0,WeatherDisplay:10.37,2013-09-02 16:40:00,
2013-09-02 12:45:00,80.4,74.0,29.87,WSW,256,0.0,4.0,81,0.00,CLR,SCT,0.00,925.0,WeatherDisplay:10.37,2013-09-02 16:45:00,
2013-09-02 12:50:00,80.7,73.2,29.87,WSW,257,0.0,3.0,78,0.00,CLR,SCT,0.00,907.0,WeatherDisplay:10.37,2013-09-02 16:50:00,
2013-09-02 12:55:00,81.2,74.1,29.87,WSW,258,0.0,2.0,79,0.00,CLR,SCT,0.00,902.0,WeatherDisplay:10.37,2013-09-02 16:55:00,
2013-09-02 13:00:00,81.5,73.6,29.87,West,268,0.0,6.0,77,0.00,CLR,SCT,0.00,947.0,WeatherDisplay:10.37,2013-09-02 17:00:00,
2013-09-02 13:05:00,82.0,73.3,29.87,West,269,1.0,3.0,75,0.00,CLR,SCT,0.00,875.0,WeatherDisplay:10.37,2013-09-02 17:05:00,
2013-09-02 13:10:00,82.3,74.7,29.86,West,270,0.0,2.0,78,0.00,FEW,SCT,0.00,995.0,WeatherDisplay:10.37,2013-09-02 17:10:00,
2013-09-02 13:15:00,82.7,74.4,29.86,West,270,2.0,4.0,76,0.00,CLR,SCT,0.00,1002.0,WeatherDisplay:10.37,2013-09-02 17:15:00,
2013-09-02 13:20:00,83.0,73.1,29.86,West,267,2.0,6.0,72,0.00,CLR,SCT,0.00,893.0,WeatherDisplay:10.37,2013-09-02 17:20:00,
2013-09-02 13:25:00,83.2,73.2,29.86,West,266,0.0,5.0,72,0.00,CLR,SCT,0.00,967.0,WeatherDisplay:10.37,2013-09-02 17:25:00,
2013-09-02 13:30:00,83.5,73.1,29.86,West,265,2.0,5.0,71,0.00,CLR,SCT,0.00,1039.0,WeatherDisplay:10.37,2013-09-02 17:30:00,
2013-09-02 13:35:00,83.6,72.8,29.86,West,265,2.0,4.0,70,0.00,CLR,SCT,0.00,1048.0,WeatherDisplay:10.37,2013-09-02 17:35:00,
2013-09-02 13:40:00,83.8,73.0,29.85,West,265,1.0,3.0,70,0.00,CLR,SCT,0.00,1051.0,WeatherDisplay:10.37,2013-09-02 17:40:00,
2013-09-02 13:45:00,83.9,72.6,29.85,WSW,252,2.0,5.0,69,0.00,CLR,SCT,0.00,1051.0,WeatherDisplay:10.37,2013-09-02 17:45:00,
2013-09-02 13:50:00,84.0,72.7,29.85,WSW,244,2.0,3.0,69,0.00,CLR,SCT,0.00,896.0,WeatherDisplay:10.37,2013-09-02 17:50:00,
2013-09-02 13:55:00,84.1,72.8,29.85,WSW,244,0.0,3.0,69,0.00,FEW,SCT,0.00,823.0,WeatherDisplay:10.37,2013-09-02 17:55:00,
2013-09-02 14:00:00,84.1,72.8,29.85,WSW,244,1.0,5.0,69,0.00,SCT,SCT,0.00,570.0,WeatherDisplay:10.37,2013-09-02 18:00:00,
2013-09-02 14:05:00,84.0,72.7,29.85,WSW,244,1.0,5.0,69,0.00,SCT,SCT,0.00,519.0,WeatherDisplay:10.37,2013-09-02 18:05:00,
2013-09-02 14:10:00,83.9,71.3,29.85,WSW,244,0.0,6.0,66,0.00,SCT,SCT,0.00,680.0,WeatherDisplay:10.37,2013-09-02 18:10:00,
2013-09-02 14:15:00,83.8,71.7,29.84,WSW,247,0.0,3.0,67,0.00,SCT,SCT,0.00,612.0,WeatherDisplay:10.37,2013-09-02 18:15:00,
2013-09-02 14:20:00,83.8,72.1,29.84,WSW,252,1.0,3.0,68,0.00,SCT,SCT,0.00,487.0,WeatherDisplay:10.37,2013-09-02 18:20:00,
2013-09-02 14:25:00,84.0,72.7,29.84,WSW,252,1.0,4.0,69,0.00,SCT,SCT,0.00,988.0,WeatherDisplay:10.37,2013-09-02 18:25:00,
2013-09-02 14:30:00,84.3,73.4,29.84,WSW,251,1.0,4.0,70,0.00,FEW,SCT,0.00,932.0,WeatherDisplay:10.37,2013-09-02 18:30:00,
2013-09-02 14:35:00,84.5,72.8,29.84,WSW,245,0.0,5.0,68,0.00,CLR,SCT,0.00,925.0,WeatherDisplay:10.37,2013-09-02 18:35:00,
2013-09-02 14:40:00,84.9,72.7,29.83,WSW,241,2.0,4.0,67,0.00,CLR,SCT,0.00,229.0,WeatherDisplay:10.37,2013-09-02 18:40:00,
2013-09-02 14:45:00,84.9,72.3,29.83,WSW,241,0.0,4.0,66,0.00,SCT,SCT,0.00,276.0,WeatherDisplay:10.37,2013-09-02 18:45:00,
2013-09-02 14:50:00,84.9,71.8,29.83,WSW,241,0.0,3.0,65,0.00,BKN,SCT,0.00,378.0,WeatherDisplay:10.37,2013-09-02 18:50:00,
2013-09-02 14:55:00,85.0,72.4,29.83,WSW,241,0.0,4.0,66,0.00,SCT,SCT,0.00,972.0,WeatherDisplay:10.37,2013-09-02 18:55:00,
2013-09-02 15:00:00,85.3,72.7,29.82,SW,234,1.0,6.0,66,0.00,FEW,SCT,0.00,926.0,WeatherDisplay:10.37,2013-09-02 19:00:00,
2013-09-02 15:05:00,85.7,72.6,29.82,SW,231,0.0,7.0,65,0.00,CLR,SCT,0.00,882.0,WeatherDisplay:10.37,2013-09-02 19:05:00,
2013-09-02 15:10:00,86.0,72.9,29.82,SW,230,5.0,6.0,65,0.00,CLR,SCT,0.00,870.0,WeatherDisplay:10.37,2013-09-02 19:10:00,
2013-09-02 15:15:00,86.2,73.0,29.82,SW,230,2.0,5.0,65,0.00,CLR,SCT,0.00,879.0,WeatherDisplay:10.37,2013-09-02 19:15:00,
2013-09-02 15:20:00,86.2,72.6,29.82,WSW,237,1.0,8.0,64,0.00,CLR,SCT,0.00,902.0,WeatherDisplay:10.37,2013-09-02 19:20:00,
2013-09-02 15:25:00,86.3,72.7,29.81,WSW,245,1.0,5.0,64,0.00,CLR,SCT,0.00,629.0,WeatherDisplay:10.37,2013-09-02 19:25:00,
2013-09-02 15:30:00,86.5,74.2,29.81,WSW,246,2.0,4.0,67,0.00,CLR,SCT,0.00,849.0,WeatherDisplay:10.37,2013-09-02 19:30:00,
2013-09-02 15:35:00,86.6,72.0,29.81,SW,228,3.0,8.0,62,0.00,CLR,SCT,0.00,865.0,WeatherDisplay:10.37,2013-09-02 19:35:00,
2013-09-02 15:40:00,86.4,72.8,29.81,SW,215,1.0,6.0,64,0.00,FEW,SCT,0.00,243.0,WeatherDisplay:10.37,2013-09-02 19:40:00,
2013-09-02 15:45:00,86.2,72.1,29.81,SSW,202,0.0,2.0,63,0.00,SCT,SCT,0.00,309.0,WeatherDisplay:10.37,2013-09-02 19:45:00,
2013-09-02 15:50:00,86.1,73.4,29.81,SSW,202,0.0,1.0,66,0.00,BKN,SCT,0.00,271.0,WeatherDisplay:10.37,2013-09-02 19:50:00,
2013-09-02 15:55:00,85.9,71.8,29.81,SSW,202,0.0,1.0,63,0.00,SCT,SCT,0.00,786.0,WeatherDisplay:10.37,2013-09-02 19:55:00,
2013-09-02 16:05:00,86.2,72.1,29.80,SSW,204,2.0,4.0,63,0.00,CLR,SCT,0.00,703.0,WeatherDisplay:10.37,2013-09-02 20:05:00,
2013-09-02 16:10:00,86.7,71.6,29.80,SSW,206,1.0,3.0,61,0.00,CLR,SCT,0.00,722.0,WeatherDisplay:10.37,2013-09-02 20:10:00,
2013-09-02 16:15:00,87.0,72.0,29.80,SSW,211,2.0,4.0,61,0.00,CLR,SCT,0.00,520.0,WeatherDisplay:10.37,2013-09-02 20:15:00,
2013-09-02 16:20:00,87.2,73.1,29.80,SW,218,0.0,5.0,63,0.00,FEW,SCT,0.00,559.0,WeatherDisplay:10.37,2013-09-02 20:20:00,
2013-09-02 16:25:00,87.3,71.2,29.80,SW,221,2.0,4.0,59,0.00,FEW,SCT,0.00,512.0,WeatherDisplay:10.37,2013-09-02 20:25:00,
2013-09-02 16:30:00,87.3,70.7,29.80,SW,224,0.0,3.0,58,0.00,SCT,SCT,0.00,338.0,WeatherDisplay:10.37,2013-09-02 20:30:00,
2013-09-02 16:35:00,87.2,71.6,29.80,SW,227,0.0,1.0,60,0.00,SCT,SCT,0.00,350.0,WeatherDisplay:10.37,2013-09-02 20:35:00,
2013-09-02 16:40:00,87.2,71.6,29.79,SW,218,2.0,4.0,60,0.00,SCT,SCT,0.00,445.0,WeatherDisplay:10.37,2013-09-02 20:40:00,
2013-09-02 16:45:00,87.2,73.5,29.79,SW,218,0.0,2.0,64,0.00,SCT,SCT,0.00,513.0,WeatherDisplay:10.37,2013-09-02 20:45:00,
2013-09-02 16:50:00,87.2,72.1,29.80,SW,215,1.0,3.0,61,0.00,FEW,SCT,0.00,598.0,WeatherDisplay:10.37,2013-09-02 20:50:00,
2013-09-02 16:55:00,87.3,71.7,29.79,SSW,211,1.0,3.0,60,0.00,CLR,SCT,0.00,605.0,WeatherDisplay:10.37,2013-09-02 20:55:00,
2013-09-02 17:05:00,87.7,72.6,29.79,SSW,203,0.0,3.0,61,0.00,CLR,SCT,0.00,568.0,WeatherDisplay:10.37,2013-09-02 21:05:00,
2013-09-02 17:10:00,88.0,71.8,29.79,South,169,2.0,4.0,59,0.00,CLR,SCT,0.00,512.0,WeatherDisplay:10.37,2013-09-02 21:10:00,
2013-09-02 17:15:00,88.2,73.5,29.79,SSE,151,0.0,3.0,62,0.00,CLR,SCT,0.00,454.0,WeatherDisplay:10.37,2013-09-02 21:15:00,
2013-09-02 17:20:00,88.4,73.7,29.79,SSE,153,0.0,3.0,62,0.00,FEW,SCT,0.00,323.0,WeatherDisplay:10.37,2013-09-02 21:20:00,
2013-09-02 17:25:00,88.4,73.2,29.79,SSE,152,0.0,3.0,61,0.00,FEW,SCT,0.00,513.0,WeatherDisplay:10.37,2013-09-02 21:25:00,
2013-09-02 17:30:00,88.3,72.2,29.79,SSE,153,0.0,1.0,59,0.00,FEW,SCT,0.00,232.0,WeatherDisplay:10.37,2013-09-02 21:30:00,
2013-09-02 17:35:00,88.2,73.0,29.78,SSE,153,0.0,2.0,61,0.00,FEW,SCT,0.00,206.0,WeatherDisplay:10.37,2013-09-02 21:35:00,
2013-09-02 17:40:00,88.0,73.3,29.78,SSE,153,0.0,1.0,62,0.00,SCT,SCT,0.00,190.0,WeatherDisplay:10.37,2013-09-02 21:40:00,
2013-09-02 17:45:00,87.8,73.2,29.78,SSE,153,0.0,1.0,62,0.00,SCT,SCT,0.00,257.0,WeatherDisplay:10.37,2013-09-02 21:45:00,
2013-09-02 17:50:00,87.6,72.5,29.78,SSE,153,0.0,1.0,61,0.00,SCT,SCT,0.00,325.0,WeatherDisplay:10.37,2013-09-02 21:50:00,
2013-09-02 17:55:00,87.6,73.0,29.78,SSE,153,0.0,1.0,62,0.00,FEW,SCT,0.00,292.0,WeatherDisplay:10.37,2013-09-02 21:55:00,
2013-09-02 18:00:00,87.5,73.8,29.78,SSE,153,0.0,1.0,64,0.00,FEW,SCT,0.00,111.0,WeatherDisplay:10.37,2013-09-02 22:00:00,
2013-09-02 18:05:00,87.5,72.9,29.78,SSE,153,0.0,1.0,62,0.00,SCT,SCT,0.00,90.0,WeatherDisplay:10.37,2013-09-02 22:05:00,
2013-09-02 18:10:00,87.4,73.2,29.78,SSE,153,0.0,0.0,63,0.00,BKN,SCT,0.00,81.0,WeatherDisplay:10.37,2013-09-02 22:10:00,
2013-09-02 18:15:00,87.3,75.9,29.78,SSE,153,0.0,0.0,69,0.00,BKN,SCT,0.00,118.0,WeatherDisplay:10.37,2013-09-02 22:15:00,
2013-09-02 18:20:00,87.1,74.8,29.78,SSE,152,0.0,0.0,67,0.00,SCT,SCT,0.00,290.0,WeatherDisplay:10.37,2013-09-02 22:20:00,
2013-09-02 18:25:00,86.8,75.4,29.78,SSE,153,0.0,0.0,69,0.00,CLR,SCT,0.00,308.0,WeatherDisplay:10.37,2013-09-02 22:25:00,
2013-09-02 18:30:00,86.7,75.3,29.78,SSE,153,0.0,1.0,69,0.00,CLR,SCT,0.00,283.0,WeatherDisplay:10.37,2013-09-02 22:30:00,
2013-09-02 18:35:00,86.7,74.9,29.78,SSE,153,0.0,1.0,68,0.00,CLR,SCT,0.00,260.0,WeatherDisplay:10.37,2013-09-02 22:35:00,
2013-09-02 18:40:00,86.7,74.4,29.78,SSE,153,0.0,2.0,67,0.00,CLR,SCT,0.00,183.0,WeatherDisplay:10.37,2013-09-02 22:40:00,
2013-09-02 18:45:00,86.5,74.2,29.78,SSE,153,1.0,3.0,67,0.00,FEW,SCT,0.00,116.0,WeatherDisplay:10.37,2013-09-02 22:45:00,
2013-09-02 18:50:00,86.2,74.4,29.78,SSE,153,0.0,2.0,68,0.00,BKN,SCT,0.00,70.0,WeatherDisplay:10.37,2013-09-02 22:50:00,
2013-09-02 18:55:00,85.7,73.9,29.78,SSE,153,0.0,0.0,68,0.00,BKN,SCT,0.00,56.0,WeatherDisplay:10.37,2013-09-02 22:55:00,
2013-09-02 19:00:00,85.4,74.0,29.78,SSE,153,0.0,1.0,69,0.00,BKN,SCT,0.00,46.0,WeatherDisplay:10.37,2013-09-02 23:00:00,
2013-09-02 19:05:00,84.9,74.0,29.79,SSE,153,0.0,1.0,70,0.00,BKN,SCT,0.00,39.0,WeatherDisplay:10.37,2013-09-02 23:05:00,
2013-09-02 19:10:00,84.3,73.5,29.79,SSE,153,0.0,1.0,70,0.00,BKN,SCT,0.00,32.0,WeatherDisplay:10.37,2013-09-02 23:10:00,
2013-09-02 19:15:00,83.9,73.5,29.79,SSE,153,0.0,0.0,71,0.00,BKN,SCT,0.00,28.0,WeatherDisplay:10.37,2013-09-02 23:15:00,
2013-09-02 19:20:00,83.4,73.5,29.79,SSE,153,0.0,1.0,72,0.00,BKN,SCT,0.00,25.0,WeatherDisplay:10.37,2013-09-02 23:20:00,
2013-09-02 19:25:00,83.1,73.5,29.79,SSE,153,0.0,1.0,73,0.00,BKN,SCT,0.00,19.0,WeatherDisplay:10.37,2013-09-02 23:25:00,
2013-09-02 19:30:00,82.9,74.5,29.79,SSE,153,0.0,1.0,76,0.00,,SCT,0.00,14.0,WeatherDisplay:10.37,2013-09-02 23:30:00,
2013-09-02 19:35:00,82.6,74.6,29.79,SSE,153,0.0,0.0,77,0.00,,SCT,0.00,9.0,WeatherDisplay:10.37,2013-09-02 23:35:00,
2013-09-02 19:40:00,82.1,74.2,29.79,SSE,153,0.0,1.0,77,0.00,,SCT,0.00,5.0,WeatherDisplay:10.37,2013-09-02 23:40:00,
2013-09-02 19:45:00,81.7,74.1,29.79,SSE,153,0.0,1.0,78,0.00,,SCT,0.00,0.0,WeatherDisplay:10.37,2013-09-02 23:45:00,
2013-09-02 19:50:00,81.2,73.7,29.79,SSE,153,0.0,0.0,78,0.00,,SCT,0.00,0.0,WeatherDisplay:10.37,2013-09-02 23:50:00,
2013-09-02 19:55:00,80.7,73.2,29.79,SSE,153,0.0,1.0,78,0.00,,SCT,0.00,0.0,WeatherDisplay:10.37,2013-09-02 23:55:00,
2013-09-02 20:00:00,80.1,73.0,29.79,SSE,153,0.0,0.0,79,0.00,,SCT,0.00,0.0,WeatherDisplay:10.37,2013-09-03 00:00:00,
2013-09-02 20:05:00,79.6,72.9,29.79,SSE,153,0.0,0.0,80,0.00,,SCT,0.00,0.0,WeatherDisplay:10.37,2013-09-03 00:05:00,
2013-09-02 20:10:00,79.1,72.4,29.79,SSE,153,0.0,0.0,80,0.00,,SCT,0.00,0.0,WeatherDisplay:10.37,2013-09-03 00:10:00,
2013-09-02 20:15:00,78.7,72.4,29.79,SSE,153,0.0,0.0,81,0.00,,SCT,0.00,0.0,WeatherDisplay:10.37,2013-09-03 00:15:00,
2013-09-02 20:20:00,78.3,72.3,29.80,SSE,153,0.0,0.0,82,0.00,,SCT,0.00,0.0,WeatherDisplay:10.37,2013-09-03 00:20:00,
2013-09-02 20:25:00,77.8,71.9,29.80,SSE,153,0.0,0.0,82,0.00,,SCT,0.00,0.0,WeatherDisplay:10.37,2013-09-03 00:25:00,
2013-09-02 20:30:00,77.6,72.0,29.80,SSE,153,0.0,0.0,83,0.00,,SCT,0.00,0.0,WeatherDisplay:10.37,2013-09-03 00:30:00,
2013-09-02 20:35:00,77.2,71.6,29.81,SSE,153,0.0,0.0,83,0.00,,SCT,0.00,0.0,WeatherDisplay:10.37,2013-09-03 00:35:00,
2013-09-02 20:40:00,76.9,71.7,29.81,SSE,153,0.0,0.0,84,0.00,,SCT,0.00,0.0,WeatherDisplay:10.37,2013-09-03 00:40:00,
2013-09-02 20:45:00,76.5,71.7,29.81,SSE,153,0.0,0.0,85,0.00,,SCT,0.00,0.0,WeatherDisplay:10.37,2013-09-03 00:45:00,
2013-09-02 20:50:00,76.2,71.4,29.81,SSE,153,0.0,0.0,85,0.00,,SCT,0.00,0.0,WeatherDisplay:10.37,2013-09-03 00:50:00,
2013-09-02 20:55:00,76.0,71.5,29.81,SSE,153,0.0,0.0,86,0.00,,SCT,0.00,0.0,WeatherDisplay:10.37,2013-09-03 00:55:00,
2013-09-02 21:00:00,75.8,71.3,29.81,SSE,153,0.0,0.0,86,0.00,,SCT,0.00,0.0,WeatherDisplay:10.37,2013-09-03 01:00:00,
2013-09-02 21:05:00,75.6,71.1,29.81,SSE,153,0.0,0.0,86,0.00,,SCT,0.00,0.0,WeatherDisplay:10.37,2013-09-03 01:05:00,
2013-09-02 21:10:00,75.3,70.8,29.81,SSE,153,0.0,0.0,86,0.00,,SCT,0.00,0.0,WeatherDisplay:10.37,2013-09-03 01:10:00,
2013-09-02 21:15:00,75.2,71.0,29.82,SSE,153,0.0,0.0,87,0.00,,SCT,0.00,0.0,WeatherDisplay:10.37,2013-09-03 01:15:00,
2013-09-02 21:20:00,74.9,70.8,29.82,SSE,153,0.0,0.0,87,0.00,,SCT,0.00,0.0,WeatherDisplay:10.37,2013-09-03 01:20:00,
2013-09-02 21:25:00,74.8,70.7,29.82,SSE,153,0.0,0.0,87,0.00,,SCT,0.00,0.0,WeatherDisplay:10.37,2013-09-03 01:25:00,
2013-09-02 21:30:00,74.6,70.9,29.82,SSE,153,0.0,0.0,88,0.00,,SCT,0.00,0.0,WeatherDisplay:10.37,2013-09-03 01:30:00,
2013-09-02 21:35:00,74.5,70.7,29.82,SSE,153,0.0,0.0,88,0.00,,SCT,0.00,0.0,WeatherDisplay:10.37,2013-09-03 01:35:00,
2013-09-02 21:40:00,74.3,70.5,29.82,SSE,153,0.0,0.0,88,0.00,,SCT,0.00,0.0,WeatherDisplay:10.37,2013-09-03 01:40:00,
2013-09-02 21:45:00,74.2,70.4,29.82,SSE,153,0.0,0.0,88,0.00,,SCT,0.00,0.0,WeatherDisplay:10.37,2013-09-03 01:45:00,
2013-09-02 21:50:00,74.0,70.6,29.82,SSE,153,0.0,0.0,89,0.00,,SCT,0.00,0.0,WeatherDisplay:10.37,2013-09-03 01:50:00,
2013-09-02 21:55:00,73.9,70.5,29.82,SSE,153,0.0,0.0,89,0.00,,SCT,0.00,0.0,WeatherDisplay:10.37,2013-09-03 01:55:00,
2013-09-02 22:00:00,73.8,70.4,29.82,SSE,153,0.0,0.0,89,0.00,,SCT,0.00,0.0,WeatherDisplay:10.37,2013-09-03 02:00:00,
2013-09-02 22:05:00,73.6,70.2,29.82,SSE,153,0.0,0.0,89,0.00,,SCT,0.00,0.0,WeatherDisplay:10.37,2013-09-03 02:05:00,
2013-09-02 22:10:00,73.5,70.1,29.82,SSE,153,0.0,0.0,89,0.00,,SCT,0.00,0.0,WeatherDisplay:10.37,2013-09-03 02:10:00,
2013-09-02 22:15:00,73.4,70.3,29.83,SSE,153,0.0,0.0,90,0.00,,SCT,0.00,0.0,WeatherDisplay:10.37,2013-09-03 02:15:00,
2013-09-02 22:20:00,73.3,70.2,29.83,SSE,152,0.0,1.0,90,0.00,,SCT,0.00,0.0,WeatherDisplay:10.37,2013-09-03 02:20:00,
2013-09-02 22:25:00,73.1,70.0,29.82,SSE,153,0.0,0.0,90,0.00,,SCT,0.00,0.0,WeatherDisplay:10.37,2013-09-03 02:25:00,
2013-09-02 22:30:00,73.1,70.0,29.83,SSE,153,0.0,0.0,90,0.00,,SCT,0.00,0.0,WeatherDisplay:10.37,2013-09-03 02:30:00,
2013-09-02 22:35:00,73.1,70.0,29.83,SSE,153,0.0,0.0,90,0.00,,SCT,0.00,0.0,WeatherDisplay:10.37,2013-09-03 02:35:00,
2013-09-02 22:40:00,73.2,70.4,29.84,SSE,153,2.0,4.0,91,0.00,,SCT,0.00,0.0,WeatherDisplay:10.37,2013-09-03 02:40:00,
2013-09-02 22:45:00,73.3,70.5,29.84,WSW,241,5.0,12.0,91,0.00,,SCT,0.00,0.0,WeatherDisplay:10.37,2013-09-03 02:45:00,
2013-09-02 22:50:00,73.3,70.5,29.84,West,267,5.0,9.0,91,0.00,,SCT,0.00,0.0,WeatherDisplay:10.37,2013-09-03 02:50:00,
2013-09-02 22:55:00,73.1,70.0,29.84,WNW,284,1.0,12.0,90,0.00,,SCT,0.00,0.0,WeatherDisplay:10.37,2013-09-03 02:55:00,
2013-09-02 23:00:00,73.1,69.7,29.84,WNW,292,3.0,6.0,89,0.00,,SCT,0.00,0.0,WeatherDisplay:10.37,2013-09-03 03:00:00,
2013-09-02 23:05:00,73.0,69.2,29.84,WNW,292,2.0,6.0,88,0.00,,SCT,0.00,0.0,WeatherDisplay:10.37,2013-09-03 03:05:00,
2013-09-02 23:10:00,73.0,68.9,29.84,WNW,292,1.0,6.0,87,0.00,,SCT,0.00,0.0,WeatherDisplay:10.37,2013-09-03 03:10:00,
2013-09-02 23:15:00,72.9,68.1,29.84,WNW,292,1.0,4.0,85,0.00,,SCT,0.00,0.0,WeatherDisplay:10.37,2013-09-03 03:15:00,
2013-09-02 23:20:00,72.6,66.1,29.84,West,272,2.0,8.0,80,0.00,,SCT,0.00,0.0,WeatherDisplay:10.37,2013-09-03 03:20:00,
2013-09-02 23:25:00,72.4,65.9,29.83,West,264,1.0,8.0,80,0.00,,SCT,0.00,0.0,WeatherDisplay:10.37,2013-09-03 03:25:00,
2013-09-02 23:30:00,72.2,65.7,29.84,West,266,1.0,4.0,80,0.01,RA,SCT,0.01,0.0,WeatherDisplay:10.37,2013-09-03 03:30:00,
2013-09-02 23:35:00,72.1,65.6,29.83,West,266,0.0,2.0,80,0.00,RA,SCT,0.01,0.0,WeatherDisplay:10.37,2013-09-03 03:35:00,
2013-09-02 23:40:00,71.9,65.8,29.83,West,266,0.0,1.0,81,0.00,,SCT,0.01,0.0,WeatherDisplay:10.37,2013-09-03 03:40:00,
2013-09-02 23:45:00,71.8,66.0,29.83,West,266,0.0,1.0,82,0.00,,SCT,0.01,0.0,WeatherDisplay:10.37,2013-09-03 03:45:00,
2013-09-02 23:50:00,71.6,65.8,29.83,West,266,0.0,0.0,82,0.00,,SCT,0.01,0.0,WeatherDisplay:10.37,2013-09-03 03:50:00,
2013-09-02 23:55:00,71.5,66.1,29.83,West,266,0.0,0.0,83,0.00,,SCT,0.01,0.0,WeatherDisplay:10.37,2013-09-03 03:55:00,